Overview Statistics Trail Chart Weather Telemetry Raw packets
 

This is the latest recevied weather packets stored in our database for station/object N7WSS. If no packets are shown the sender has not sent any weather packets the latest 10 day(s).

<< 107 108 109 110 111 112 113 >>
Time Temp. Humidity Pressure Rain* Wind** Luminosity Snow
1787822523 26.11° C 49% 1013.1 hPa 0 mm - - -
1787822217 26.67° C 49% 1013.1 hPa 0 mm - - -
1787821916 26.67° C 48% 1013.1 hPa 0 mm - - -
1787821611 26.67° C 48% 1013.2 hPa 0 mm - - -
1787821307 26.67° C 48% 1013.2 hPa 0 mm - - -
1787821006 26.67° C 48% 1013.2 hPa 0 mm - - -
1787820705 27.22° C 48% 1013.1 hPa 0 mm - - -
1787820401 27.22° C 47% 1013.3 hPa 0 mm - - -
1787820097 27.22° C 47% 1013.1 hPa 0 mm - - -
1787819792 27.22° C 47% 1013.2 hPa 0 mm - - -
1787819487 27.78° C 46% 1013.3 hPa 0 mm - - -
1787819186 27.78° C 45% 1013.1 hPa 0 mm - - -
1787818881 28.33° C 44% 1013.6 hPa 0 mm - - -
1787818580 28.33° C 43% 1013.5 hPa 0 mm - - -
1787818276 28.89° C 42% 1013.5 hPa 0 mm - - -
1787817976 28.89° C 42% 1013.3 hPa 0 mm - - -
1787817674 28.89° C 43% 1013.5 hPa 0 mm - - -
1787817373 28.89° C 42% 1013.5 hPa 0 mm - - -
1787817069 28.89° C 42% 1013.5 hPa 0 mm - - -
1787816768 29.44° C 42% 1013.6 hPa 0 mm - - -
1787816463 29.44° C 42% 1013.7 hPa 0 mm - - -
1787816163 28.89° C 43% 1013.8 hPa 0 mm - - -
1787815858 28.33° C 44% 1013.9 hPa 0 mm - - -
1787815554 28.33° C 44% 1013.7 hPa 0 mm - - -
1787815250 28.33° C 44% 1013.9 hPa 0 mm - - -

* Rain latest hour (hover to see other rain measurements)
** Current wind speed in m/s (hover to see current wind gust speed)